Content
SEND FEEDBACK

Daily
Averages
Monthly
Summary
United States of America

ALPINE, TEXAS


Home > North America > United States > Texas
Elevation: 4465 feet     Latitude: 30 22N     Longitude: 103 40W

WEATHER
 
SELECT A DAY
Number of Records: 260,386;   Date Range: 6/6/03 - 9/20/14
 
SHARE

PRINT THIS DATA

[ ← Previous Day ]
WEATHER ALMANAC - FEBRUARY 13, 2013
[ Next Day → ]
[ °C ]   °F
Weather ElementAverageHighLow
Temperature39.4 °F56.5 °F (3:55 pm)21.7 °F (2:15 am)
Dewpoint10.4 °F21 °F (5:15 am)1.6 °F (4:35 pm)
Humidity39 %81 % (4:15 am)11 % (4:15 pm)
Barometer30.14 in30.20 in (10:35 am)30.07 in (4:15 pm)
Wind Speed9.1 mph16.1 mph (12:15 pm)
Wind Gust21.9 mph (12:15 pm)
Weather ElementAverage
Visibility10 mi
Wind DirectionSSW (194.9 °)

Weather ElementTotal
Precipitation---
Heating Degree Days25.9 (Base 65)
Averaged from 71 records on February 13, 2013
WEATHER CONDITIONS BREAKOUT
WIND DIRECTION BREAKOUT
WEATHER BY HOUR - FEBRUARY 13, 2013
[ °C ]   °F
Local TimeTemperatureDewpointHumidityBarometerVisibilityWind DirectionWind SpeedGust SpeedPrecipitationEventsConditions
12:35 AM25.9 °F14.0 °F61 %30.19 in10.0 miSW (220°)3.5 mphClear
12:55 AM26.8 °F14.9 °F61 %30.19 in10.0 miSouth (190°)3.5 mphClear
1:15 AM25.9 °F15.4 °F65 %30.19 in10.0 miSouth (170°)3.5 mphClear
1:35 AM24.8 °F15.4 °F68 %30.19 in10.0 miSW (230°)5.8 mphClear
1:55 AM23.4 °F15.4 °F72 %30.19 in10.0 miSW (220°)5.8 mphClear
2:15 AM21.7 °F14.9 °F75 %30.19 in10.0 miSouth (180°)4.6 mphClear
2:35 AM21.7 °F15.3 °F76 %30.18 in10.0 miSW (220°)8.1 mphClear
2:55 AM22.3 °F15.8 °F76 %30.19 in10.0 miSouth (180°)4.6 mphClear
3:15 AM22.5 °F16.5 °F78 %30.19 in10.0 miSSE (160°)5.8 mphClear
3:35 AM22.3 °F16.7 °F79 %30.19 in10.0 miSSW (210°)5.8 mphClear
3:55 AM21.9 °F16.7 °F80 %30.18 in10.0 miSSW (210°)8.1 mphClear
4:15 AM23.4 °F18.3 °F81 %30.18 in10.0 miSSW (210°)9.2 mphClear
4:35 AM25.0 °F19.6 °F80 %30.17 in10.0 miSSW (210°)10.4 mphClear
4:55 AM25.9 °F20.3 °F79 %30.17 in10.0 miSSW (210°)9.2 mphClear
5:15 AM27.3 °F21.0 °F77 %30.16 in10.0 miSSW (210°)10.4 mphClear
5:35 AM26.6 °F20.3 °F77 %30.17 in10.0 miSSW (200°)10.4 mphClear
5:55 AM27.1 °F20.1 °F75 %30.17 in10.0 miSSW (210°)8.1 mphClear
6:15 AM25.9 °F19.2 °F76 %30.18 in10.0 miSSE (160°)5.8 mphClear
6:35 AM26.4 °F19.9 °F77 %30.19 in10.0 miSSE (160°)6.9 mphClear
6:55 AM25.2 °F19.6 °F79 %30.18 in10.0 miSouth (180°)8.1 mphClear
7:15 AM26.2 °F19.6 °F76 %30.18 in10.0 miSouth (170°)10.4 mphClear
7:35 AM27.7 °F18.9 °F69 %30.18 in10.0 miSouth (170°)9.2 mphClear
7:55 AM27.0 °F18.1 °F69 %30.18 in10.0 miSouth (180°)5.8 mphClear
8:15 AM27.7 °F18.7 °F69 %30.19 in10.0 miSouth (180°)5.8 mphClear
8:35 AM31.5 °F19.2 °F61 %30.19 in10.0 miCalmClear
8:55 AM35.2 °F19.0 °F52 %30.19 in10.0 miCalmClear
9:15 AM39.9 °F16.9 °F39 %30.19 in10.0 miSSW (210°)8.1 mphClear
9:35 AM42.8 °F13.3 °F30 %30.19 in10.0 miSW (230°)11.5 mphClear
9:55 AM44.1 °F12.6 °F28 %30.19 in10.0 miSSW (200°)10.4 mphClear
10:15 AM45.7 °F12.6 °F26 %30.19 in10.0 miSSW (200°)11.5 mphClear
10:35 AM46.6 °F9.5 °F22 %30.20 in10.0 miSSW (200°)12.7 mphClear
10:55 AM47.5 °F10.2 °F22 %30.19 in10.0 miSouth (190°)11.5 mphClear
11:15 AM48.0 °F9.3 °F21 %30.19 in10.0 miSouth (190°)15.0 mphClear
11:35 AM49.1 °F8.2 °F19 %30.19 in10.0 miSSW (200°)12.7 mph17.3 mphClear
11:55 AM49.6 °F7.5 °F18 %30.19 in10.0 miSouth (190°)12.7 mph19.6 mphClear
12:15 PM50.4 °F6.8 °F17 %30.18 in10.0 miSouth (180°)16.1 mph21.9 mphClear
12:35 PM51.6 °F6.4 °F16 %30.17 in10.0 miSSW (210°)13.8 mph19.6 mphClear
12:55 PM52.7 °F7.7 °F16 %30.15 in10.0 miSSW (200°)9.2 mphClear
1:15 PM53.4 °F8.2 °F16 %30.14 in10.0 miSW (220°)15.0 mph20.7 mphClear
1:35 PM54.1 °F7.3 °F15 %30.13 in10.0 miSSW (210°)10.4 mph19.6 mphClear
1:55 PM54.3 °F6.6 °F15 %30.11 in10.0 miSW (230°)10.4 mph18.4 mphClear
2:15 PM55.8 °F6.8 °F14 %30.10 in10.0 miSSW (200°)10.4 mph18.4 mphClear
2:35 PM55.9 °F5.9 °F13 %30.10 in10.0 miSW (230°)11.5 mph20.7 mphClear
2:55 PM56.1 °F4.5 °F13 %30.09 in10.0 miSW (230°)11.5 mph17.3 mphClear
3:15 PM56.3 °F3.9 °F12 %30.08 in10.0 miWSW (240°)13.8 mph18.4 mphClear
3:35 PM56.3 °F3.7 °F12 %30.08 in10.0 miSW (220°)13.8 mphClear
3:55 PM56.5 °F3.6 °F12 %30.08 in10.0 miSSW (210°)11.5 mph18.4 mphClear
4:15 PM56.3 °F2.1 °F11 %30.07 in10.0 miSW (230°)15.0 mph18.4 mphClear
4:35 PM56.1 °F1.6 °F11 %30.07 in10.0 miSW (230°)10.4 mphClear
4:55 PM56.3 °F3.2 °F12 %30.07 in10.0 miSSW (210°)15.0 mphClear
5:15 PM56.1 °F4.3 °F12 %30.07 in10.0 miWSW (240°)12.7 mph16.1 mphClear
5:35 PM55.4 °F4.8 °F13 %30.07 in10.0 miWSW (240°)15.0 mphClear
5:55 PM54.3 °F5.9 °F14 %30.07 in10.0 miSW (230°)13.8 mphClear
6:15 PM52.7 °F5.7 °F15 %30.08 in10.0 miSW (220°)12.7 mphClear
6:35 PM50.4 °F5.0 °F16 %30.08 in10.0 miSW (220°)10.4 mphClear
6:55 PM47.8 °F4.3 °F17 %30.09 in10.0 miSW (220°)9.2 mphClear
7:15 PM45.7 °F3.9 °F18 %30.09 in10.0 miSSW (210°)10.4 mphClear
7:35 PM44.8 °F3.9 °F19 %30.10 in10.0 miSSW (210°)10.4 mphClear
7:55 PM43.2 °F3.6 °F19 %30.11 in10.0 miSSW (200°)8.1 mphClear
8:15 PM40.6 °F3.2 °F21 %30.11 in10.0 miSE (130°)4.6 mphClear
8:35 PM40.6 °F3.9 °F22 %30.11 in10.0 miENE (70°)4.6 mphClear
8:55 PM42.4 °F3.6 °F20 %30.12 in10.0 miSSW (210°)3.5 mphClear
9:15 PM36.3 °F3.4 °F25 %30.11 in10.0 miSSW (210°)6.9 mphClear
9:35 PM34.3 °F4.1 °F28 %30.11 in10.0 miSouth (190°)10.4 mphClear
9:55 PM34.2 °F4.3 °F28 %30.12 in10.0 miSSW (200°)6.9 mphClear
10:15 PM32.9 °F4.5 °F30 %30.12 in10.0 miSSW (200°)6.9 mphClear
10:35 PM36.5 °F5.2 °F27 %30.12 in10.0 miSSW (200°)4.6 mphClear
10:55 PM38.7 °F5.0 °F25 %30.12 in10.0 miSSW (210°)5.8 mphClear
11:15 PM35.8 °F5.2 °F28 %30.12 in10.0 miSouth (170°)4.6 mphClear
11:35 PM35.6 °F6.1 °F29 %30.12 in10.0 miSouth (180°)10.4 mphClear
11:55 PM37.9 °F6.6 °F27 %30.12 in10.0 miSouth (180°)12.7 mphClear
Hourly data recorded from KE38, located miles away from Alpine, Texas







STORIES FROM OUR PARTNERS